Terminal Aerodrome Forecast
Issued by NWS

Home | Current Version | Previous Version | Text Only | Print | Product List | Glossary On
Versions: 1 2 3 4 5 6 7 8 9 10 11 12 13 14 15 16 17
000
FTUS45 KBOU 262024 AAA
TAFBJC
TAF AMD
KBJC 262024Z 2620/2718 12006KT P6SM SCT050 SCT120
     FM262100 11008KT P6SM VCTS SCT060CB SCT140
     FM270100 13010KT P6SM SCT080 BKN150
     FM270500 17010KT P6SM FEW080 SCT150
     FM270800 25006KT P6SM SCT100 BKN220
     FM271500 VRB05KT P6SM SCT100 BKN220=

USA.gov is the U.S. government's official web portal to all federal, state and local government web resources and services.